loading
|
Showing default

OPS 9317 (IDSCS 7), 2221

Orbit data source: Space-Track

OPS 9317 (IDSCS 7), 2221 is a payload satellite owned by USAF SSD (US) that was launched on Thu, 16 Jun 1966 UTC via a TITAN IIIC launch vehicle from the Air Force Eastern Test Range (AFETR). Payloads include a variety of satellites, spacecraft, and rockets equipped with specific instruments for various scientific and technological missions. These include communications satellites like Starlink; space stations such as the ISS; scientific satellites like the Hubble; Earth observation satellites from companies like Planet Labs, Umbra, and HawkEye 360; GPS; miniature CubeSats for education and research; and military/defense satellites.

Loading next visibility...
Loading greatness...
OPS 9317 (IDSCS 7) details
Identifier
2221, 1966-053H
Orbit
Active
Last TLE update2 days ago
Origin
Flag of USUSAF SSD (US)
ManufacturerPhilco-Ford WDL
MissionNon-operational Defense Communications
Bus & MotorIDCSP, Unknown motor
Mass45 kg wet, 45 kg dry
Launch date (UTC)
1966-06-16 (58 years ago)
Launch vehicle
TITAN IIIC
Launch site
Air Force Eastern Test Range (AFETR)
Object type
Payload
Rocket body
Debris
Shape & HBRIco Poly, 0.9 m
Radar Cross Section0.926 m², Medium (>0.1 m² and < 1m²)

Expand to show TLE details & history

TLE from 2 days ago
0 OPS 9317 (IDSCS 7)
1 02221U 66053H   24275.52434893 -.00000092  00000-0  00000-0 0  9997
2 02221   7.2103  52.5039 0080919 157.0013 203.4692  1.06870286 44361
Epoch: 2024-10-01T12:35Z
Definitive object data (Epoch: 2024-10-01T12:35:03.747Z)
Latitude-0°
Longitude-146.92046°
Altitude34,333.169 km
Speed3.117 km/s
True Right ascension03h 30m 19s
True Declination0° 00' 00"
Sunlit
Object was in daylight at TLE epoch
Predictive object data (real-time)
Latitude7.18684°
Longitude-60.61267°
Altitude33,919.28 km
Speed3.15 km/s
Apparent Right ascension09h 19m 43s
Apparent Declination1° 34' 26"
Sunlit
Object is in daylight
Predictive observer data (real-time)
Local Sidereal Time08:45:37
Azimuth166.42° S
Elevation50.883°
Doppler factor1
Orbital elements
Apogee34,360.737 km
Perigee33,706.72 km
Semi-major axis40,411.865 km
Eccentricity0.0080919
Inclination7.2103°
RAAN52.5039°
Arg. of periapsis157.0013°
True anomaly203.10331°
Mean anomaly203.4692°
Eccentric anomaly203.28592°
Mean motion0.26717 °/min
BSTARUnknown
Period1347.48 mins
No data available

OPS 9317 (IDSCS 7) Visibility forecast

Observer location: 39.9160978°, -105.1181434

OPS 9317 (IDSCS 7) is not visible in the next 10 days
Span
Click to sort rows by Start time (UTC) header in descending order
Start Az.
Max El. time (UTC)
Max El. Az.
Max El.
End time (UTC)
End Az.